Regional Weather Roundup
Issued by NWS

Home | Current Version | Previous Version | Text Only | Print | Product List | Glossary Off
Versions: 1 2 3 4 5 6 7 8 9 10 11 12 13 14 15 16 17 18 19 20 21 22 23 24 25 26 27 28 29 30 31 32 33 34 35 36 37 38 39 40 41 42 43 44 45 46 47 48 49 50

000
ASUS43 KMKX 271800
RWRWI

WISCONSIN REGIONAL WEATHER ROUNDUP
NATIONAL WEATHER SERVICE MILWAUKEE/SULLIVAN WI
100 PM CDT THU APR 27 2017

NOTE: "FAIR" INDICATES FEW OR NO CLOUDS BELOW 12,000 FEET WITH NO
SIGNIFICANT WEATHER AND/OR OBSTRUCTIONS TO VISIBILITY.

WIZ001-002-006>008-014>016-023>028-271900-
NORTHWEST WISCONSIN

CITY           SKY/WX    TMP DP  RH WIND       PRES   REMARKS
SUPERIOR ARPT  CLOUDY    28  22  75 CALM      29.54S
ASHLAND        CLOUDY    27  23  85 W12       29.51R WCI  17
6HR MIN TEMP:  27; 6HR MAX TEMP:  28;

HAYWARD        CLOUDY    28  22  78 VRB6      29.50S WCI  22
6HR MIN TEMP:  27; 6HR MAX TEMP:  28; 6HR PCP: TRACE;

SIREN          CLOUDY    29  23  76 NW13G18   29.55S WCI  19
CUMBERLAND     CLOUDY    30  25  80 W20       29.52R WCI  18
RICE LAKE      CLOUDY    31  27  84 W13       29.54R WCI  21
CHETEK         CLOUDY    32  28  87 W8        29.52R WCI  24
LADYSMITH      LGT SNOW  31  27  85 W12       29.50R WCI  22
EAU CLAIRE     NOT AVBL
MENOMONIE      CLOUDY    34  28  76 W13       29.54R WCI  25
NEW RICHMOND   CLOUDY    32  25  75 NW14      29.56R WCI  22
OSCEOLA        CLOUDY    32  24  73 W15       29.59S WCI  22
$$

WIZ003>005-009-010-017-018-271900-
NORTH CENTRAL WISCONSIN

CITY           SKY/WX    TMP DP  RH WIND       PRES   REMARKS
MANITOWISH WTR LGT SNOW  26  26 100 NW8       29.42R VSB 1   WCI  18
ARBOR VITAE    LGT SNOW  29  27  92 NW8       29.41R VSB 1   WCI  21
WOODRUFF       LGT SNOW  29  27  92 NW8       29.41R VSB 1   WCI  21
RHINELANDER    SNOW      30  26  85 W12       29.41R VSB 1/2 WCI  20
6HR MIN TEMP:  30; 6HR MAX TEMP:  32; 6HR PCP:  0.40;

EAGLE RIVER    LGT SNOW  28  26  90 NW15      29.39S VSB 3/4 WCI  17
LAND O LAKES   LGT SNOW  28  26  89 NW7       29.40S VSB 3/4 WCI  21
PHILLIPS       LGT SNOW  28  26  94 NW6       29.45R WCI  21
TOMAHAWK       LGT SNOW  29  27  90 W8        29.45R VSB 3/4 WCI  21
MEDFORD        LGT SNOW  30  26  87 W10       29.46R WCI  21
MERRILL        LGT SNOW  30  29  96 NW9       29.45R VSB 3/4 WCI  22
$$

WIZ029-030-035-036-043>047-271900-
CENTRAL WISCONSIN

CITY           SKY/WX    TMP DP  RH WIND       PRES   REMARKS
WAUSAU         LGT SNOW  31  29  92 W15       29.45R VSB 3/4 WCI  20
6HR MIN TEMP:  30; 6HR MAX TEMP:  33; 6HR PCP:  0.38;

MOSINEE        SNOW      30  30 100 W9G20     29.48R VSB 1/2 WCI  22
MARSHFIELD     CLOUDY    32  30  92 W9        29.48R FOG     WCI  24
6HR MIN TEMP:  30; 6HR MAX TEMP:  33; 6HR PCP:  0.15;

STEVENS POINT  MIX PCPN  31  30  95 W10G22    29.49R WCI  22
WAUPACA        LGT SNOW  36  33  90 W15G28    29.48R WCI  26
WAUTOMA        FLURRIES  35  33  92 W13       29.51R WCI  26
6HR MIN TEMP:  33; 6HR MAX TEMP:  38; 6HR PCP:  0.27;

WISC RAPIDS    LGT SNOW  34  33  96 MISG      29.51R FOG
6HR MIN TEMP:  32; 6HR MAX TEMP:  35; 6HR PCP:  0.27;

CAMP DOUGLAS   CLOUDY    37  32  81 W16       29.52S WCI  28
$$

WIZ011>013-019>022-031-037>040-048>050-271900-
NORTHEAST WISCONSIN

CITY           SKY/WX    TMP DP  RH WIND       PRES   REMARKS
ANTIGO         LGT SNOW  32  31  97 NW16G22   29.40R WCI  21
SHAWANO        RAIN      37  35  92 W8        29.42R WCI  30
OCONTO         NOT AVBL
STURGEON BAY   LGT RAIN  41  39  93 W13       29.40R FOG
6HR MIN TEMP:  38; 6HR MAX TEMP:  41; 6HR PCP:  0.09;

GREEN BAY      LGT RAIN  40  38  93 W17G24    29.44R WCI  31
6HR MIN TEMP:  39; 6HR MAX TEMP:  43; 6HR PCP:  0.27;

MANITOWOC      NOT AVBL
APPLETON       LGT SNOW  36  36 100 W21G29    29.44R WCI  24
CLINTONVILLE   LGT RAIN  34  34 100 W9G17     29.44R WCI  26
OSHKOSH        MIX PCPN  36  33  89 W13G22    29.48R WCI  27
6HR MIN TEMP:  36; 6HR MAX TEMP:  42; 6HR PCP:  0.22;

$$

WIZ032>034-041-042-053>061-271900-
SOUTHWEST WISCONSIN

CITY           SKY/WX    TMP DP  RH WIND       PRES   REMARKS
LA CROSSE      LGT RAIN  41  33  73 W10       29.55R
6HR MIN TEMP:  37; 6HR MAX TEMP:  43; 6HR PCP: TRACE;

SPARTA         CLOUDY    37  34  89 W9        29.54R WCI  30
VIROQUA        CLOUDY    38  35  85 W13       29.53S WCI  31
BOSCOBEL       LGT RAIN  42  36  79 W14       29.58R
6HR MIN TEMP:  36; 6HR MAX TEMP:  44; 6HR PCP:  0.09;

PRAIRIE DU CHI CLOUDY    41  32  70 W17       29.59R
PLATTEVILLE    CLOUDY    42  39  88 W17G25    29.58S
$$

WIZ056-057-062-063-064-067-068-271900-
SOUTH CENTRAL WISCONSIN

CITY           SKY/WX    TMP DP  RH WIND       PRES   REMARKS
REEDSBURG      NOT AVBL
BARABOO/DELLS  CLOUDY    38  34  88 W9G22     29.52S WCI  31
LONE ROCK      CLOUDY    41  35  79 W12       29.56R
MINERAL POINT  CLOUDY    41  39  93 W13       29.55R
MADISON        CLOUDY    40  34  79 W7        29.54R
6HR MIN TEMP:  35; 6HR MAX TEMP:  40; 6HR PCP:  0.19;

MIDDLETON      CLOUDY    40  35  83 W15       29.55R WCI  32
WATERTOWN      CLOUDY    38  35  88 W14G20    29.53R WCI  30
MONROE         CLOUDY    37  36  93 W20       29.56R WCI  27
JANESVILLE     CLOUDY    41  41 100 W16G26    29.56R
$$

WIZ051-052-058>065-066-070>072-271900-
SOUTHEAST WISCONSIN

CITY           SKY/WX    TMP DP  RH WIND       PRES   REMARKS
MILWAUKEE      CLOUDY    44  36  73 W16G25    29.54R
6HR MIN TEMP:  44; 6HR MAX TEMP:  50; 6HR PCP:  0.06;

WAUKESHA       CLOUDY    37  34  87 W17G23    29.54R WCI  28
MILWAUKEE/TIMM DRIZZLE   39  34  81 W18G25    29.53R WCI  30
RACINE         CLOUDY    45  34  65 W20G26    29.57R
6HR MIN TEMP:  45; 6HR MAX TEMP:  51; 6HR PCP:  0.06;

KENOSHA        CLOUDY    45  36  70 W24       29.56R
6HR MIN TEMP:  44; 6HR MAX TEMP:  49; 6HR PCP:  0.03;

FOND DU LAC    FLURRIES  37  32  82 W14G24    29.50R WCI  28
6HR MIN TEMP:  37; 6HR MAX TEMP:  44; 6HR PCP:  0.21;

SHEBOYGAN      LGT RAIN  41  37  86 W22       29.47R
6HR MIN TEMP:  41; 6HR MAX TEMP:  48; 6HR PCP:  0.13;

WEST BEND      CLOUDY    37  36  93 W14G26    29.49R WCI  29
JUNEAU         CLOUDY    36  32  86 W12G25    29.53R WCI  28
$$

LSZ147-162-271900-
LAKE SUPERIOR

STATION/POSITION TIME  TEMP    WIND        PRES    WAVE
                       AIR SEA DIR/SP/G            HT/PER
                 (UTC) (F)     (DEG/KT/KT) (MB)    (FT/S)
DEVILS ISLAND    1700   26     290/ 15/ 17  999.4R
PORT WING        1740   28     290/ 14/ 17 1000.0R
SAXON HARBOR     1740   28     300/  9/ 12  999.0S
$$

LMZ867-665-643>646-271900-
LAKE MICHIGAN

STATION/POSITION TIME  TEMP    WIND        PRES    WAVE
                       AIR SEA DIR/SP/G            HT/PER
                 (UTC) (F)     (DEG/KT/KT) (MB)    (FT/S)
CHAMBERS ISLAND  1740   39     250/  6/ 10  993.9R
N MID LAKE BUOY  1650   45 37  180/ 14/ 19  992.1F   2/ 4
NORTHPORT PIER   1740   39     300/  9/ 15  993.6R
SISTER BAY       1621   36     330/ 19/ 22   N/A
KEWAUNEE LAKESHO 1730   43     240/ 12/ 17  995.5R
SHEBOYGAN LAKESH 1700   43     250/ 20/ 26  997.1R
PORT WASHINGTON  1730   43     260/ 12/ 19 1000.0R
MILWAUKEE LAKESH 1740   42     250/ 18/ 22   N/A
S MID LAKE BUOY  1650   44 41  260/ 16/ 19  999.9R   4/ 4
KENOSHA   LAKESH 1700   45     250/ 21/ 27 1000.3
$$

TC  - TEMPERATURE IN CELSIUS
VSB - VISIBILITY IN STATUTE MILES
WCI - WIND CHILL INDEX
HX  - HEAT INDEX




USA.gov is the U.S. government's official web portal to all federal, state and local government web resources and services.